St-Nazaire, France

5:30 AM CEST on August 21, 2017 (GMT +0200)
Montoir

Weather History for LFRZ - February, 2013

Change the Weather History Date:

Saturday, February 16, 2013

  Actual Average Record
Temperature  
Mean Temperature 42 °F -  
Max Temperature 53 °F 51 °F 62 °F (2007)
Min Temperature 32 °F 39 °F 26 °F (2009)
Degree Days  
Heating Degree Days 22    
Moisture  
Dew Point 37 °F    
Average Humidity 88    
Maximum Humidity 100    
Minimum Humidity 67    
Precipitation  
Precipitation 0.00 in - - ()
Sea Level Pressure  
Sea Level Pressure 30.19 in    
Wind  
Wind Speed 3 mph ()    
Max Wind Speed 10 mph    
Max Gust Speed -    
Visibility 2.8 miles    
Events Fog    
Averages and records for this station are not official NWS values.
T = Trace of Precipitation, MM = Missing Value Source: Averaged Metar Reports

Daily Weather History Graph

Daily Weather History Graph

Search for Another Location

Airport or City:

Trip Planner

Search our weather history database for the weather conditions in past years. The results will help you decide how hot, cold, wet, or windy it might be!

Date:

Astronomy

Feb. 16, 2013 Rise Set
Actual Time 8:12 AM CET 6:34 PM CET
Civil Twilight 7:40 AM CET 7:05 PM CET
Nautical Twilight 7:04 AM CET 7:41 PM CET
Astronomical Twilight 6:29 AM CET 8:16 PM CET
Moon 10:46 AM CET (2/16) 12:47 AM CET (2/16)
Length of Visible Light 11h 25m
Length of Day
10h 22m
Waxing Crescent, 37% of the Moon is Illuminated
Feb 16
Waxing Crescent
Feb 17
First Quarter
Feb 25
Full
Mar 4
Last Quarter
Mar 11
New

Hourly Weather History & Observations

Time (CET) Temp. Windchill Dew Point Humidity Pressure Visibility Wind Dir Wind Speed Gust Speed Precip Events Conditions
12:00 AM 35.6 °F - 33.8 °F 93% 30.24 in 0.1 mi Calm Calm - N/A Fog Fog
12:30 AM 33.8 °F - 32.0 °F 93% 30.24 in 0.1 mi Calm Calm - N/A Fog Fog
1:00 AM 35.6 °F - 35.6 °F 100% 30.21 in 0.1 mi Calm Calm - N/A Fog Fog
1:30 AM 33.8 °F 30.8 °F 32.0 °F 93% 30.21 in 0.1 mi East 3.5 mph - N/A Fog Fog
2:00 AM 35.6 °F - 33.8 °F 93% 30.21 in 0.1 mi Calm Calm - N/A Fog Fog
2:30 AM 33.8 °F - 32.0 °F 93% 30.21 in 0.1 mi East 1.2 mph - N/A Fog Fog
3:00 AM 33.8 °F - 33.8 °F 100% 30.21 in 0.1 mi Calm Calm - N/A Fog Fog
3:30 AM 33.8 °F - 32.0 °F 93% 30.21 in 0.1 mi East 1.2 mph - N/A Fog Fog
4:00 AM 33.8 °F - 33.8 °F 100% 30.21 in 0.1 mi East 1.2 mph - N/A Fog Fog
4:30 AM 35.6 °F - 33.8 °F 93% 30.21 in 0.1 mi Calm Calm - N/A Fog Fog
5:00 AM 33.8 °F - 32.0 °F 93% 30.21 in 0.1 mi ENE 2.3 mph - N/A Fog Fog
5:30 AM 32.0 °F 28.7 °F 32.0 °F 100% 30.21 in 0.1 mi ENE 3.5 mph - N/A Fog Fog
6:00 AM 33.8 °F - 32.0 °F 93% 30.18 in 0.1 mi Calm Calm - N/A Fog Fog
6:30 AM 33.8 °F - 33.8 °F 100% 30.21 in 0.0 mi North 1.2 mph - N/A Fog Fog
7:00 AM 33.8 °F 30.8 °F 32.0 °F 93% 30.21 in 0.2 mi NE 3.5 mph - N/A Fog Fog
7:30 AM 33.8 °F - 32.0 °F 93% 30.21 in 0.2 mi ENE 2.3 mph - N/A Fog Fog
8:00 AM 33.8 °F - 32.0 °F 93% 30.21 in 0.2 mi ENE 2.3 mph - N/A Fog Fog
8:30 AM 33.8 °F - 32.0 °F 93% 30.21 in 0.2 mi Calm Calm - N/A Fog Fog
9:00 AM 33.8 °F - 32.0 °F 93% 30.21 in 0.2 mi North 1.2 mph - N/A Fog Fog
9:30 AM 35.6 °F 31.7 °F 33.8 °F 93% 30.21 in 0.1 mi ENE 4.6 mph - N/A Fog Fog
10:00 AM 37.4 °F 32.8 °F 35.6 °F 93% 30.21 in 0.1 mi East 5.8 mph - N/A Fog Fog
10:30 AM 39.2 °F 35.9 °F 37.4 °F 93% 30.21 in 0.1 mi East 4.6 mph - N/A Fog Fog
11:00 AM 39.2 °F 35.9 °F 37.4 °F 93% 30.21 in 0.0 mi East 4.6 mph - N/A Fog Fog
11:30 AM 41.0 °F 37.1 °F 41.0 °F 100% 30.21 in 0.1 mi East 5.8 mph - N/A Fog Fog
12:00 PM 42.8 °F 41.1 °F 41.0 °F 93% 30.21 in 0.1 mi ESE 3.5 mph - N/A Fog Fog
12:30 PM 42.8 °F 40.1 °F 41.0 °F 93% 30.21 in 0.2 mi ESE 4.6 mph - N/A Fog Patches of Fog
1:00 PM 46.4 °F 45.2 °F 44.6 °F 93% 30.21 in 6.2 mi ESE 3.5 mph - N/A Fog Patches of Fog
1:30 PM 48.2 °F - 46.4 °F 93% 30.21 in 6.2 mi Variable 3.5 mph - N/A   Partly Cloudy
2:00 PM 50.0 °F - 48.2 °F 94% 30.18 in 6.2 mi Variable 3.5 mph - N/A   Mostly Cloudy
2:30 PM 51.8 °F - 42.8 °F 71% 30.18 in 6.2 mi Variable 3.5 mph - N/A   Partly Cloudy
3:00 PM 50.0 °F - 41.0 °F 71% 30.18 in 6.2 mi Variable 2.3 mph - N/A   Partly Cloudy
3:30 PM 53.6 °F - 42.8 °F 67% 30.15 in 6.2 mi Calm Calm - N/A   Mostly Cloudy
4:00 PM 53.6 °F - 42.8 °F 67% 30.15 in 6.2 mi Variable 4.6 mph - N/A   Overcast
4:30 PM 50.0 °F - 42.8 °F 76% 30.15 in 6.2 mi NNE 6.9 mph - N/A   Mostly Cloudy
5:00 PM 51.8 °F - 41.0 °F 67% 30.15 in 6.2 mi NE 6.9 mph - N/A   Mostly Cloudy
5:30 PM 50.0 °F - 41.0 °F 71% 30.12 in 6.2 mi ENE 6.9 mph - N/A   Mostly Cloudy
6:00 PM 50.0 °F - 41.0 °F 71% 30.12 in 6.2 mi East 8.1 mph - N/A   Overcast
6:30 PM 48.2 °F - 41.0 °F 76% 30.12 in 6.2 mi ENE 8.1 mph - N/A   Mostly Cloudy
7:00 PM 44.6 °F 41.4 °F 37.4 °F 76% 30.15 in 6.2 mi ENE 5.8 mph - N/A   Unknown
7:30 PM 42.8 °F 37.5 °F 37.4 °F 81% 30.15 in 6.2 mi East 9.2 mph - N/A   Unknown
8:00 PM 42.8 °F 37.0 °F 37.4 °F 81% 30.15 in 6.2 mi East 10.4 mph - N/A   Unknown
8:30 PM 41.0 °F 35.2 °F 37.4 °F 87% 30.15 in 6.2 mi East 9.2 mph - N/A   Unknown
9:00 PM 39.2 °F 33.0 °F 35.6 °F 87% 30.15 in 6.2 mi East 9.2 mph - N/A   Unknown
9:30 PM 37.4 °F 30.8 °F 35.6 °F 93% 30.15 in 6.2 mi East 9.2 mph - N/A   Unknown
10:00 PM 37.4 °F 30.8 °F 33.8 °F 87% 30.15 in 6.2 mi East 9.2 mph - N/A   Unknown
10:30 PM 37.4 °F 30.8 °F 33.8 °F 87% 30.15 in 6.2 mi ENE 9.2 mph - N/A   Unknown
11:00 PM 35.6 °F 29.2 °F 33.8 °F 93% 30.15 in 4.3 mi ENE 8.1 mph - N/A   Unknown
11:30 PM 35.6 °F 29.2 °F 33.8 °F 93% 30.15 in 2.8 mi ENE 8.1 mph - N/A   Mist